TimeCDT,TemperatureF,Dew PointF,Humidity,Sea Level PressureIn,VisibilityMPH,Wind Direction,Wind SpeedMPH,Gust SpeedMPH,PrecipitationIn,Events,Conditions,WindDirDegrees,DateUTC
12:53 AM,46.0,42.1,86,29.99,10.0,Calm,Calm,-,N/A,,Overcast,0,2012-11-02 05:53:00
1:53 AM,43.0,37.9,82,29.99,10.0,Calm,Calm,-,N/A,,Clear,0,2012-11-02 06:53:00
2:53 AM,42.1,37.9,85,29.98,10.0,SSE,3.5,-,N/A,,Clear,150,2012-11-02 07:53:00
3:53 AM,39.9,37.0,89,29.98,10.0,Calm,Calm,-,N/A,,Clear,0,2012-11-02 08:53:00
4:53 AM,39.0,36.0,89,29.98,10.0,Calm,Calm,-,N/A,,Clear,0,2012-11-02 09:53:00
5:53 AM,39.0,37.0,93,29.99,10.0,SE,3.5,-,N/A,,Clear,140,2012-11-02 10:53:00
6:53 AM,37.9,36.0,93,29.99,10.0,Calm,Calm,-,N/A,,Clear,0,2012-11-02 11:53:00
7:53 AM,41.0,39.0,93,30.01,10.0,Calm,Calm,-,N/A,,Clear,0,2012-11-02 12:53:00
8:53 AM,52.0,43.0,71,30.03,10.0,Calm,Calm,-,N/A,,Clear,0,2012-11-02 13:53:00
9:53 AM,59.0,45.0,60,30.02,10.0,Calm,Calm,-,N/A,,Clear,0,2012-11-02 14:53:00
10:53 AM,63.0,46.0,54,30.02,10.0,West,6.9,-,N/A,,Clear,280,2012-11-02 15:53:00
11:53 AM,68.0,48.9,50,30.00,10.0,West,12.7,-,N/A,,Clear,280,2012-11-02 16:53:00
12:53 PM,70.0,48.0,46,29.99,10.0,West,8.1,-,N/A,,Clear,260,2012-11-02 17:53:00
1:53 PM,71.1,46.9,42,29.97,10.0,WSW,11.5,-,N/A,,Clear,250,2012-11-02 18:53:00
2:53 PM,73.9,46.9,38,29.96,10.0,West,9.2,-,N/A,,Clear,270,2012-11-02 19:53:00
3:53 PM,73.9,45.0,35,29.96,10.0,West,10.4,-,N/A,,Clear,270,2012-11-02 20:53:00
4:53 PM,73.0,45.0,37,29.97,10.0,West,4.6,-,N/A,,Clear,260,2012-11-02 21:53:00
5:53 PM,68.0,44.1,42,29.98,10.0,WNW,5.8,-,N/A,,Clear,290,2012-11-02 22:53:00
6:53 PM,57.9,45.0,62,30.01,10.0,Calm,Calm,-,N/A,,Clear,0,2012-11-02 23:53:00
7:53 PM,55.0,45.0,69,30.02,10.0,NNE,3.5,-,N/A,,Clear,20,2012-11-03 00:53:00
8:53 PM,52.0,45.0,77,30.02,10.0,Calm,Calm,-,N/A,,Clear,0,2012-11-03 01:53:00
9:53 PM,50.0,44.1,80,30.03,10.0,Calm,Calm,-,N/A,,Clear,0,2012-11-03 02:53:00
10:53 PM,46.9,42.1,83,30.03,10.0,Calm,Calm,-,N/A,,Clear,0,2012-11-03 03:53:00
11:53 PM,46.0,42.1,86,30.04,10.0,Calm,Calm,-,N/A,,Clear,0,2012-11-03 04:53:00